Location: Lake Zurich
(42.1970°N, 88.0930°W)
Time: 03:11:47
(UTC-05:00)

Amateur Radio Satellites - All Passes

Search period start: 01 October 2014 02:41
Search period end: 02 October 2014 02:41
Location: Lake Zurich, 42.1970°N, 88.0930°W

Satellite Date Start Highest point End Downlink Frequencies (MHz)
Time Altitude Azimuth
ISS 01 Oct 02:56:45 02:59:22 21° 15° (NNE) 03:01:58 145.800 FM
Oscar 19 01 Oct 02:57:25 03:02:30 61° 288° (WNW) 03:07:32 437.125 CW, 437.150 USB
TMSAT-1 01 Oct 03:00:58 03:05:10 23° 93° (E) 03:09:20 436.925 FM
ITAMSAT 1 01 Oct 03:08:41 03:13:56 73° 103° (ESE) 03:19:09 435.822 SSB
Uribyol 2 01 Oct 03:09:37 03:14:52 79° 103° (ESE) 03:20:06 436.500 FM
Oscar 16 01 Oct 03:39:08 03:43:21 26° 295° (WNW) 03:47:33 437.025 USB, Beacon 2401.1428
SO-50 01 Oct 03:43:19 03:47:57 45° 51° (NE) 03:52:37 436.795 FM
AO-27 01 Oct 03:47:18 03:52:21 50° 289° (WNW) 03:57:23 436.795 MHz FM
AO-Echo 01 Oct 03:49:02 03:53:39 38° 290° (WNW) 03:58:23 ?
AO-7 01 Oct 03:50:45 03:56:27 20° 91° (E) 04:02:08 29.400 - 29.500 MHz
Gurwin Techsat 1B 01 Oct 04:11:21 04:16:36 61° 288° (WNW) 04:21:49 435.225 FM
UOSAT-12 01 Oct 04:12:59 04:15:16 13° 34° (NE) 04:17:33 437.025 FM, 437.400 FM
JAS-1B 01 Oct 04:21:59 04:26:35 26° 296° (WNW) 04:31:23 435.800 - 435.900 CW/SSB
OPAL 01 Oct 04:23:39 04:28:42 53° 69° (ENE) 04:33:47 ?
RS-15 01 Oct 04:25:00 04:35:26 47° 317° (NW) 04:45:55 29.354 - 29.394 USB, Beacon 29.352 USB
KITSAT 1 01 Oct 04:30:11 04:35:09 18° 259° (W) 04:40:06 435.175 FM
ISS 01 Oct 04:33:08 04:36:28 80° 34° (NE) 04:39:47 145.800 FM
TMSAT-1 01 Oct 04:40:14 04:45:17 45° 290° (WNW) 04:50:18 436.925 FM
MaSat-1 01 Oct 04:40:45 04:43:50 17° 104° (ESE) 04:46:51 437.345 MHz
ITAMSAT 1 01 Oct 04:49:45 04:52:49 16° 300° (WNW) 04:55:52 435.822 SSB
Uribyol 2 01 Oct 04:50:52 04:53:40 15° 301° (WNW) 04:56:28 436.500 FM
Uosat F 01 Oct 05:10:05 05:15:05 61° 102° (ESE) 05:20:04 435.120 FM
JAS-2 01 Oct 05:10:33 05:14:51 17° 90° (E) 05:19:23 435.800 - 435.900 CW/SSB, 435.910 FM
SO-50 01 Oct 05:24:23 05:28:17 25° 248° (WSW) 05:32:12 436.795 FM
STRAND 1 01 Oct 05:27:33 05:30:34 16° 60° (ENE) 05:33:34 ?
AO-7 01 Oct 05:41:50 05:50:10 86° 290° (WNW) 05:58:28 29.400 - 29.500 MHz
UOSAT-12 01 Oct 05:51:36 05:56:19 68° 54° (NE) 06:00:58 437.025 FM, 437.400 FM
Hamsat 01 Oct 06:01:15 06:04:40 24° 94° (E) 06:08:03 145.90 MHz
OPAL 01 Oct 06:04:06 06:07:52 20° 265° (W) 06:11:39 ?
ISS 01 Oct 06:11:14 06:12:43 13° 230° (SW) 06:14:12 145.800 FM
MaSat-1 01 Oct 06:15:07 06:19:56 59° 299° (WNW) 06:24:29 437.345 MHz
RS-15 01 Oct 06:43:23 06:51:31 23° 350° (N) 06:59:45 29.354 - 29.394 USB, Beacon 29.352 USB
Uosat F 01 Oct 06:50:06 06:53:23 18° 299° (WNW) 06:56:41 435.120 FM
JAS-2 01 Oct 06:53:44 07:00:25 87° 285° (WNW) 07:07:54 435.800 - 435.900 CW/SSB, 435.910 FM
STRAND 1 01 Oct 07:04:06 07:09:10 70° 258° (WSW) 07:14:17 ?
UOSAT-12 01 Oct 07:33:20 07:35:54 15° 252° (WSW) 07:38:26 437.025 FM, 437.400 FM
AO-7 01 Oct 07:36:06 07:41:49 21° 310° (NW) 07:47:33 29.400 - 29.500 MHz
Hamsat 01 Oct 07:36:59 07:40:37 29° 291° (WNW) 07:44:12 145.90 MHz
SO-67 01 Oct 08:10:30 08:13:57 74° 283° (WNW) 08:17:23 435.3500 MHz FM
PCSat 01 Oct 08:26:56 08:30:19 17° 105° (ESE) 08:33:43 145.825 MHz
JAS-2 01 Oct 08:40:39 08:44:45 18° 301° (WNW) 08:49:06 435.800 - 435.900 CW/SSB, 435.910 FM
RS-15 01 Oct 08:59:41 09:08:53 29° 26° (NNE) 09:18:18 29.354 - 29.394 USB, Beacon 29.352 USB
Sapphire 01 Oct 09:42:10 09:47:31 71° 117° (ESE) 09:52:56 437.095 MHz 1200 baud AX-25 AFSK
HO-68 01 Oct 09:51:30 09:58:40 65° 103° (ESE) 10:05:48 435.675 MHz FM
Oscar 11 01 Oct 09:54:50 09:58:23 24° 95° (E) 10:01:55 145.825 FM, Beacon 2401.500 USB
PCSat 01 Oct 10:07:45 10:13:08 68° 302° (WNW) 10:18:34 145.825 MHz
FUNcube-1 01 Oct 10:19:49 10:23:10 20° 92° (E) 10:26:26 145.950 - 145.970 MHz USB
UKube-1 01 Oct 10:23:56 10:28:17 63° 102° (ESE) 10:32:36 145.840 MHz, 145.915 MHz
ZACube-1 01 Oct 11:04:13 11:08:44 60° 100° (E) 11:13:08 437.345 MHz
RS-15 01 Oct 11:12:20 11:23:29 75° 54° (NE) 11:35:05 29.354 - 29.394 USB, Beacon 29.352 USB
Sapphire 01 Oct 11:27:27 11:31:30 21° 316° (NW) 11:35:34 437.095 MHz 1200 baud AX-25 AFSK
Oscar 11 01 Oct 11:30:47 11:34:34 30° 291° (WNW) 11:38:19 145.825 FM, Beacon 2401.500 USB
HO-68 01 Oct 11:40:05 11:45:50 27° 302° (WNW) 11:51:34 435.675 MHz FM
PCSat 01 Oct 11:54:49 11:57:36 14° 323° (NW) 12:00:23 145.825 MHz
FUNcube-1 01 Oct 11:55:27 11:59:43 40° 289° (WNW) 12:03:52 145.950 - 145.970 MHz USB
UKube-1 01 Oct 12:01:48 12:03:57 14° 298° (WNW) 12:06:06 145.840 MHz, 145.915 MHz
Oscar 19 01 Oct 12:36:34 12:40:50 26° 65° (ENE) 12:45:06 437.125 CW, 437.150 USB
ZACube-1 01 Oct 12:42:02 12:44:37 15° 298° (WNW) 12:47:09 437.345 MHz
ITAMSAT 1 01 Oct 12:50:33 12:53:35 16° 60° (ENE) 12:56:37 435.822 SSB
Uribyol 2 01 Oct 12:51:04 12:54:20 17° 61° (ENE) 12:57:36 436.500 FM
Saudisat 1A 01 Oct 12:59:00 13:01:01 13° 109° (ESE) 13:03:02 436.775 MHz
JAS-1B 01 Oct 13:15:58 13:22:59 45° 69° (ENE) 13:28:58 435.800 - 435.900 CW/SSB
Oscar 16 01 Oct 13:16:39 13:21:46 62° 72° (ENE) 13:26:54 437.025 USB, Beacon 2401.1428
AO-Echo 01 Oct 13:24:27 13:28:37 33° 68° (ENE) 13:32:50 ?
RS-15 01 Oct 13:25:38 13:34:55 32° 255° (WSW) 13:44:34 29.354 - 29.394 USB, Beacon 29.352 USB
AO-27 01 Oct 13:27:10 13:31:46 33° 67° (ENE) 13:36:24 436.795 MHz FM
Gurwin Techsat 1B 01 Oct 13:54:03 13:58:34 29° 66° (ENE) 14:03:06 435.225 FM
Oscar 19 01 Oct 14:15:06 14:19:58 40° 262° (W) 14:24:51 437.125 CW, 437.150 USB
TMSAT-1 01 Oct 14:22:03 14:26:54 38° 68° (ENE) 14:31:46 436.925 FM
ITAMSAT 1 01 Oct 14:27:18 14:32:27 72° 257° (WSW) 14:37:40 435.822 SSB
Uribyol 2 01 Oct 14:28:06 14:33:14 67° 258° (WSW) 14:38:27 436.500 FM
MaSat-1 01 Oct 14:30:26 14:33:19 24° 54° (NE) 14:35:53 437.345 MHz
Saudisat 1A 01 Oct 14:35:39 14:40:01 68° 305° (NW) 14:44:26 436.775 MHz
Uosat F 01 Oct 14:49:05 14:50:49 12° 58° (ENE) 14:52:33 435.120 FM
AO-7 01 Oct 14:50:11 14:57:11 32° 57° (ENE) 15:04:11 29.400 - 29.500 MHz
Oscar 16 01 Oct 14:58:18 15:01:32 17° 269° (W) 15:04:46 437.025 USB, Beacon 2401.1428
AO-Echo 01 Oct 15:03:33 15:07:26 26° 265° (W) 15:11:22 ?
AO-27 01 Oct 15:06:42 15:11:15 31° 264° (W) 15:15:51 436.795 MHz FM
JAS-1B 01 Oct 15:06:56 15:13:40 33° 262° (W) 15:19:31 435.800 - 435.900 CW/SSB
KITSAT 1 01 Oct 15:13:40 15:15:09 11° 97° (E) 15:16:37 435.175 FM
Gurwin Techsat 1B 01 Oct 15:33:31 15:38:24 37° 263° (W) 15:43:18 435.225 FM
TMSAT-1 01 Oct 16:02:24 16:06:53 28° 265° (W) 16:11:24 436.925 FM
MaSat-1 01 Oct 16:07:28 16:09:28 16° 257° (WSW) 16:11:19 437.345 MHz
Saudisat 1A 01 Oct 16:18:41 16:20:26 12° 325° (NW) 16:22:11 436.775 MHz
Uosat F 01 Oct 16:23:49 16:28:49 88° 76° (ENE) 16:33:51 435.120 FM
OPAL 01 Oct 16:35:26 16:37:26 12° 91° (E) 16:39:26 ?
AO-7 01 Oct 16:41:15 16:49:27 64° 256° (WSW) 16:57:42 29.400 - 29.500 MHz
Oscar 10/S400 01 Oct 16:44:51 17:02:27 47° 157° (SSE) 17:42:46 145.825 - 145.975 CW/USB, Beacon 145.810 USB
Sapphire 01 Oct 16:48:03 16:50:32 13° 36° (NE) 16:53:01 437.095 MHz 1200 baud AX-25 AFSK
Hamsat 01 Oct 16:55:25 16:58:34 20° 66° (ENE) 17:01:42 145.90 MHz
KITSAT 1 01 Oct 17:00:59 17:08:55 63° 115° (ESE) 17:16:52 435.175 FM
JAS-2 01 Oct 17:07:59 17:12:45 39° 68° (ENE) 17:17:47 435.800 - 435.900 CW/SSB, 435.910 FM
PCSat 01 Oct 17:12:44 17:16:38 20° 43° (NE) 17:20:31 145.825 MHz
SO-50 01 Oct 18:02:14 18:03:30 11° 107° (ESE) 18:04:46 436.795 FM
Uosat F 01 Oct 18:07:31 18:08:16 10° 272° (W) 18:09:00 435.120 FM
OPAL 01 Oct 18:11:48 18:16:55 79° 288° (WNW) 18:21:56 ?
Sapphire 01 Oct 18:29:41 18:35:06 62° 57° (ENE) 18:40:28 437.095 MHz 1200 baud AX-25 AFSK
Hamsat 01 Oct 18:30:13 18:34:16 38° 262° (W) 18:38:18 145.90 MHz
HO-68 01 Oct 18:40:11 18:41:07 10° 46° (NE) 18:42:04 435.675 MHz FM
AO-7 01 Oct 18:42:27 18:43:48 10° 275° (W) 18:45:09 29.400 - 29.500 MHz
SO-67 01 Oct 18:43:44 18:46:54 35° 73° (ENE) 18:50:05 435.3500 MHz FM
JAS-2 01 Oct 18:53:50 18:58:04 25° 267° (W) 19:02:28 435.800 - 435.900 CW/SSB, 435.910 FM
PCSat 01 Oct 18:55:14 19:00:41 78° 242° (WSW) 19:06:05 145.825 MHz
KITSAT 1 01 Oct 18:57:32 19:04:48 35° 317° (NW) 19:12:06 435.175 FM
STRAND 1 01 Oct 19:14:21 19:19:09 38° 98° (E) 19:23:55 ?
SO-50 01 Oct 19:38:50 19:43:20 81° 304° (NW) 19:47:58 436.795 FM
OPAL 01 Oct 19:53:27 19:54:56 11° 306° (NW) 19:56:24 ?
UOSAT-12 01 Oct 20:04:41 20:07:47 18° 110° (ESE) 20:10:55 437.025 FM, 437.400 FM
Sapphire 01 Oct 20:14:17 20:18:00 19° 255° (WSW) 20:21:42 437.095 MHz 1200 baud AX-25 AFSK
SO-67 01 Oct 20:18:28 20:20:04 13° 268° (W) 20:21:41 435.3500 MHz FM
HO-68 01 Oct 20:20:22 20:27:11 51° 66° (ENE) 20:34:03 435.675 MHz FM
Oscar 11 01 Oct 20:50:40 20:54:00 22° 66° (ENE) 20:57:20 145.825 FM, Beacon 2401.500 USB
STRAND 1 01 Oct 20:53:52 20:58:09 27° 295° (WNW) 21:02:27 ?
KITSAT 1 01 Oct 20:59:10 21:03:06 14° 344° (NNW) 21:07:02 435.175 FM
ISS 01 Oct 21:16:17 21:18:44 19° 133° (SE) 21:21:11 145.800 FM
FUNcube-1 01 Oct 21:16:57 21:20:07 19° 64° (ENE) 21:23:19 145.950 - 145.970 MHz USB
UKube-1 01 Oct 21:19:44 21:23:59 58° 73° (ENE) 21:28:16 145.840 MHz, 145.915 MHz
SO-50 01 Oct 21:22:11 21:24:40 14° 324° (NW) 21:27:12 436.795 FM
Saudisat 1A 01 Oct 21:23:22 21:26:14 17° 39° (NE) 21:29:06 436.775 MHz
UOSAT-12 01 Oct 21:42:56 21:47:29 56° 307° (NW) 21:52:08 437.025 FM, 437.400 FM
ZACube-1 01 Oct 22:00:47 22:05:11 51° 72° (ENE) 22:09:40 437.345 MHz
HO-68 01 Oct 22:08:55 22:15:06 32° 264° (W) 22:21:22 435.675 MHz FM
Oscar 11 01 Oct 22:25:58 22:29:58 35° 263° (W) 22:34:00 145.825 FM, Beacon 2401.500 USB
FUNcube-1 01 Oct 22:51:45 22:56:07 47° 261° (W) 23:00:35 145.950 - 145.970 MHz USB
ISS 01 Oct 22:51:54 22:55:10 54° 330° (NNW) 22:58:27 145.800 FM
UKube-1 01 Oct 22:58:34 23:00:33 13° 269° (W) 23:02:32 145.840 MHz, 145.915 MHz
KITSAT 1 01 Oct 22:58:49 23:02:46 14° 16° (NNE) 23:06:43 435.175 FM
Saudisat 1A 01 Oct 23:01:54 23:06:20 75° 239° (WSW) 23:10:43 436.775 MHz
UOSAT-12 01 Oct 23:27:04 23:28:41 12° 328° (NNW) 23:30:19 437.025 FM, 437.400 FM
ZACube-1 01 Oct 23:39:01 23:41:53 16° 269° (W) 23:44:47 437.345 MHz
ISS 02 Oct 00:30:00 00:32:25 18° 349° (N) 00:34:50 145.800 FM
KITSAT 1 02 Oct 00:53:44 01:01:04 36° 44° (NE) 01:08:20 435.175 FM
Oscar 16 02 Oct 01:28:46 01:32:37 21° 93° (E) 01:36:25 437.025 USB, Beacon 2401.1428
AO-Echo 02 Oct 01:33:19 01:34:19 11° 88° (E) 01:35:19 ?
RS-15 02 Oct 01:36:56 01:47:04 44° 109° (ESE) 01:57:03 29.354 - 29.394 USB, Beacon 29.352 USB
AO-27 02 Oct 01:42:15 01:43:25 11° 88° (E) 01:44:35 436.795 MHz FM
ISS 02 Oct 02:07:40 02:10:02 18° 10° (N) 02:12:24 145.800 FM
Gurwin Techsat 1B 02 Oct 02:12:55 02:13:16 10° 87° (E) 02:13:37 435.225 FM
Oscar 19 02 Oct 02:25:49 02:30:58 70° 102° (ESE) 02:36:04 437.125 CW, 437.150 USB
SO-50 02 Oct 02:30:19 02:33:37 18° 39° (NE) 02:36:56 436.795 FM
